Location: Prague
(50.0830°N, 14.4670°E)
Time: 06:17:11
(UTC+02:00)

DUCHIFAT 1 - Visible Passes

Search period start: 29 March 2023 00:00
Search period end: 08 April 2023 00:00
Orbit: 569 x 586 km, 98.1° (Epoch: 28 March)

Date Brightness Start Highest point End Pass type
(mag) Time Alt. Az. Time Alt. Az. Time Alt. Az.
29 Mar ? 03:13:52 10° NE 03:16:22 15° E 03:16:53 15° E visible
29 Mar ? 04:47:57 10° N 04:52:00 60° WNW 04:53:11 41° SW visible
30 Mar ? 03:17:54 10° NE 03:20:35 17° E 03:21:16 16° ESE visible
30 Mar ? 04:52:10 10° N 04:56:10 54° WNW 04:57:34 35° SW visible
31 Mar ? 03:21:55 10° NE 03:24:48 18° E 03:25:38 17° ESE visible
31 Mar ? 04:56:22 10° N 05:00:20 49° WNW 05:01:55 31° SW visible
01 Apr ? 03:25:56 10° NE 03:28:59 20° E 03:29:57 18° ESE visible
01 Apr ? 05:00:33 10° N 05:04:27 45° WNW 05:06:14 27° SW visible
02 Apr ? 03:29:56 10° NE 03:33:08 22° E 03:34:16 19° ESE visible
02 Apr ? 05:04:42 10° N 05:08:33 41° WNW 05:10:33 24° SW visible
03 Apr ? 03:33:56 10° NE 03:37:16 24° E 03:38:32 20° ESE visible
03 Apr ? 05:08:50 10° N 05:12:38 38° WNW 05:14:49 21° WSW visible
04 Apr ? 03:37:55 10° NE 03:41:22 26° E 03:42:47 21° SE visible
04 Apr ? 05:12:57 10° N 05:16:40 35° WNW 05:19:05 18° WSW visible
05 Apr ? 03:41:54 10° NE 03:45:26 28° E 03:47:01 22° SE visible
05 Apr ? 05:17:03 10° N 05:20:42 32° WNW 05:23:19 16° WSW visible
06 Apr ? 03:45:52 10° NNE 03:49:29 30° E 03:51:14 22° SE visible
06 Apr ? 05:21:08 10° N 05:24:42 30° WNW 05:27:31 14° WSW visible
07 Apr ? 03:49:48 10° NNE 03:53:31 33° E 03:55:25 22° SE visible
07 Apr ? 05:25:11 10° N 05:28:40 28° WNW 05:31:41 12° WSW visible
